OBJECT B, 62484

Orbit data source: Space-Track

You're viewing an Uncataloged Satellite

Recently launched and/or uncataloged satellites may have evolving metadata. Metadata may include but not limited to: Owner, Maufacturer, Bus, Motor, and Mission.

OBJECT B, 62484 is a satellite owned by SpaceX (US) in HEO that was launched on Sat, 04 Jan 2025 UTC launched from the Air Force Eastern Test Range (AFETR). Unknown objects in Earth's orbit typically refer to objects detected orbiting the Earth but have not yet been identified or cataloged. These objects could be anything from previously untracked satellites, spent rocket stages, debris from satellite collisions, or even natural meteoroids temporarily captured by Earth's gravity.

Loading next visibility...
OBJECT B details
Identifier
62484, 2025-001B
Orbit
HEO
Last TLE update1 day ago
Origin
Flag of USSpaceX (US)
ManufacturerSpaceX
MissionSpacecraft
Bus & MotorF9ST2, Unknown motor
Mass~4,000 kg wet, ~4,000 kg dry
Launch date (UTC)
2025-01-04 (1 month ago)
Launch vehicleUnknown
Launch site
Air Force Eastern Test Range (AFETR)
Object typeUnknown
Shape & HBRUnknown
Radar Cross SectionLarge (>1 m²)

Expand to show TLE details & history

TLE from 1 day ago
0 OBJECT B
1 62484U 25001B   25034.70793681  .00000199  00000-0  27438-2 0  9992
2 62484  26.6094 315.1330 7975066 187.8809 138.9313  1.41670291   436
Epoch: 2025-02-03T16:59Z
Definitive object data (Epoch: 2025-02-03T16:59:25.74Z)
Latitude0.0002°
Longitude-73.82362°
Altitude51,721.011 km
Speed1.348 km/s
True Right ascension21h 00m 37s
True Declination0° 00' 01"
Sunlit
Object was in daylight at TLE epoch
Visualization TLE readout
Latitude3.75598°
Longitude-66.61644°
Altitude53,852.88 km
Speed1.154 km/s
Apparent Right ascension21h 18m 16s
Apparent Declination0° 06' 53"
Sunlit
Object is in daylight
Visualization observer readout
Local Sidereal Time06:51:09
Azimuth310.559° NW
Elevation-37.997°
Doppler factor1
Orbital elements
Apogee altitude53,823.418 km
Perigee altitude403.712 km
Semi-major axis33,491.702 km
Eccentricity0.7975066
Inclination26.6094°
RAAN315.133°
Arg. of periapsis187.8809°
True anomaly172.14401°
Mean anomaly138.9313°
Eccentric anomaly156.87615°
Mean motion0.35411 °/min
BSTAR0.0027438
Orbital period1016.64 mins
Loading maneuver chart data...
Loading historical data...
Loading historical data...
Loading historical data...
Loading historical data...
Loading historical data...
Loading historical data...
Loading historical data...
Other satellites on launch #1 in the year 2025 (2025-01-04 UTC)

OBJECT B Visibility forecast

Observer location: undefined°, undefined

Span
Click to sort rows by Start time (UTC) header in descending order
Start Az.
Max El. time (UTC)
Max El. Az.
Max El.
End time (UTC)
End Az.
669 mins2025-02-05 14:22:15.113Z154.09° SSE2025-02-05 19:31:15.113Z194.775° SSW34.95°2025-02-06 01:31:15.113Z270.092° WNW
|